Location: Miami, Florida
(25.6830°N, 80.1700°W)
Time: 12:33:48
(UTC-04:00)

Vanguard 2 Rocket - Visible Passes

Search period start: 18 July 2018 00:00
Search period end: 28 July 2018 00:00
Orbit: 554 x 3327 km, 32.9° (Epoch: 17 July)

Date Brightness Start Highest point End Pass type
(mag) Time Alt. Az. Time Alt. Az. Time Alt. Az.
18 Jul 7.2 03:54:26 73° NW 03:54:55 77° NNW 04:05:02 10° ENE visible
18 Jul 8.8 06:02:10 10° WNW 06:10:21 59° N 06:25:05 10° E visible
19 Jul 8.3 02:58:17 36° ENE 02:58:17 36° ENE 03:03:25 10° ENE visible
19 Jul 8.3 05:04:05 17° WNW 05:09:46 57° N 05:22:01 10° ENE visible
20 Jul 9.6 02:02:08 10° ENE 02:02:08 10° ENE 02:02:15 10° ENE visible
20 Jul 7.6 04:07:56 47° WNW 04:09:36 59° N 04:19:35 10° ENE visible
20 Jul 8.9 06:16:50 10° WNW 06:25:09 61° N 06:40:07 10° E visible
21 Jul 7.9 03:11:49 45° NE 03:11:49 45° NE 03:17:53 10° ENE visible
21 Jul 8.5 05:17:45 10° WNW 05:24:36 55° N 05:36:55 10° E visible
22 Jul 9.3 02:15:42 15° ENE 02:15:42 15° ENE 02:16:51 10° ENE visible
22 Jul 8.0 04:21:31 31° WNW 04:24:24 51° N 04:34:17 10° ENE visible
23 Jul 7.7 03:25:25 48° NNE 03:25:25 48° NNE 03:32:24 10° ENE visible
23 Jul 8.5 05:32:23 10° WNW 05:39:21 58° NNE 05:51:56 10° E visible
24 Jul 9.1 02:29:22 18° ENE 02:29:22 18° ENE 02:31:18 10° ENE visible
24 Jul 8.1 04:35:11 22° WNW 04:39:11 49° N 04:49:10 10° E visible
25 Jul 7.7 03:39:10 45° N 03:39:18 45° N 03:47:05 10° ENE visible
25 Jul 8.3 05:46:54 10° WNW 05:53:57 67° NNE 06:06:52 10° E visible
26 Jul 8.9 02:43:11 21° NE 02:43:11 21° NE 02:45:48 10° ENE visible
26 Jul 8.1 04:49:01 16° WNW 04:53:54 54° NNE 05:04:09 10° E visible
27 Jul 7.7 03:53:04 41° NNW 03:54:04 44° N 04:01:58 10° E visible
27 Jul 8.1 06:01:22 10° WNW 06:08:26 84° NNE 06:21:33 10° ESE visible
